Snowfall_Accumulation
0.0 0.0 0.0 0.0 0.0 0.0 0.0 0.0 0.6 1.5 0.2 0.0 0.0 0.0 0.0 0.0 0.0 0.0 0.0 nan nan nan nan nan nan nan nan nan nan nan nan nan nan nan nan nan nan nan
0.0 0.0 0.0 0.0 0.0 0.0 0.0 0.0 0.0 0.3 0.6 0.0 0.0 0.0 0.0 0.0 0.0 0.0 0.0 nan nan nan nan nan nan nan nan nan nan nan nan nan nan nan nan nan nan nan
0.0 0.0 0.0 0.0 0.0 0.0 0.0 0.0 0.0 0.0 0.1 0.0 0.0 0.0 0.0 0.0 0.0 0.0 0.0 0.0 0.0 nan nan nan nan nan nan nan nan nan nan nan nan nan nan nan nan nan
0.0 0.0 0.0 0.0 0.0 0.0 0.0 0.0 0.0 0.0 0.0 0.0 0.0 0.0 0.0 0.0 0.0 0.0 0.0 0.0 0.0 nan nan nan nan nan nan nan nan nan nan nan nan nan nan nan nan nan
0.0 0.0 0.0 0.0 0.0 0.0 0.0 0.0 0.0 0.0 0.0 0.2 0.0 0.0 0.0 0.0 0.0 0.0 0.0 0.0 0.0 nan nan nan nan nan nan nan nan nan nan nan nan nan nan nan nan nan
0.0 0.0 0.0 0.0 0.0 0.0 0.0 0.0 0.0 0.0 0.0 0.1 0.0 0.1 0.0 0.0 0.0 0.0 0.0 0.0 0.0 0.0 nan nan nan nan nan nan nan nan nan nan nan nan nan nan nan nan
0.0 0.0 0.0 nan nan nan 0.0 0.0 0.0 0.2 0.3 0.2 0.1 0.1 0.0 0.0 0.0 0.0 0.2 0.0 0.0 0.0 0.0 0.0 0.0 0.0 0.0 nan nan nan nan nan nan nan nan nan nan nan
0.0 0.0 0.0 0.0 0.0 nan nan nan nan 0.4 0.6 0.6 0.1 0.2 0.0 0.0 0.0 0.0 0.0 0.0 0.1 0.0 0.0 0.2 0.0 0.0 0.0 0.0 nan nan nan nan nan nan nan nan nan nan
0.0 0.0 0.0 0.0 nan 0.0 nan nan nan nan 0.0 0.4 0.3 0.0 0.1 0.0 0.0 0.1 0.2 0.3 0.1 0.0 0.2 0.4 0.3 0.3 0.1 0.0 nan nan nan nan nan nan nan nan nan nan
0.0 0.0 0.0 0.0 0.0 0.0 0.5 0.2 0.0 0.0 0.0 0.0 0.1 0.0 0.0 0.0 0.0 0.0 0.0 0.0 0.2 0.0 0.0 1.5 0.6 0.8 0.4 0.2 nan nan nan nan nan nan nan nan nan nan
0.0 0.0 0.0 0.0 nan nan 0.3 0.4 0.1 0.0 nan nan nan nan nan nan nan 1.0 1.5 1.6 3.7 0.2 0.2 0.5 0.9 1.0 0.7 0.6 0.4 nan nan nan nan nan nan nan nan nan
0.1 0.0 nan 0.0 nan nan 1.1 0.9 1.2 0.1 0.0 0.0 0.0 0.0 nan nan nan 0.0 0.3 1.7 1.8 1.8 0.3 0.8 0.3 0.6 1.8 0.9 0.6 0.6 0.5 nan nan nan nan nan nan 0.2
1.1 0.9 0.6 nan nan nan nan 1.3 1.8 0.2 0.2 0.4 0.1 0.1 0.0 0.0 0.0 0.0 0.0 0.4 1.1 0.7 0.0 0.0 0.6 0.5 0.8 1.1 1.1 0.9 0.7 1.0 0.7 0.5 nan nan nan 0.2
1.3 1.2 1.9 nan nan nan 0.9 nan nan 0.5 4.5 3.9 2.7 1.7 1.3 1.1 0.1 0.3 0.1 0.0 0.0 0.0 0.0 0.0 1.6 0.4 0.7 1.3 1.3 1.0 1.1 1.2 1.0 1.2 1.0 nan nan nan
3.3 2.7 nan nan nan 1.2 nan nan 0.5 3.8 5.1 5.7 3.2 1.8 1.3 0.5 0.2 0.8 0.2 0.2 0.1 0.2 0.1 0.2 1.2 0.2 0.8 1.3 1.3 1.5 1.5 1.4 1.7 1.8 1.7 1.2 1.0 0.7
0.6 2.5 0.6 2.1 0.8 1.3 1.6 2.1 2.8 3.9 4.3 4.3 2.7 1.5 1.2 1.9 2.2 1.7 2.4 2.4 2.7 2.0 0.5 0.4 0.5 0.4 2.3 0.9 0.8 1.7 1.3 2.4 1.5 1.6 1.8 2.1 1.2 1.0
3.7 6.5 4.0 3.1 3.0 2.1 2.4 2.4 2.2 2.2 3.3 4.6 4.1 3.0 2.2 1.9 2.4 2.3 2.5 2.7 4.1 2.5 2.0 1.7 0.6 0.7 1.0 0.5 3.9 1.1 1.3 1.2 1.1 1.8 2.1 1.5 1.2 1.3
3.7 5.6 11.3 12.1 7.1 3.3 4.7 3.9 3.4 2.9 2.7 3.4 5.1 3.4 3.2 3.5 3.2 3.0 2.5 2.9 3.3 2.5 2.2 1.4 2.2 2.7 2.4 3.1 2.1 1.7 0.8 1.1 1.1 1.2 1.7 2.7 1.3 1.1
5.9 6.0 13.1 14.9 8.4 2.9 3.2 3.3 4.7 4.5 2.3 3.6 4.7 5.6 6.0 4.4 5.0 4.0 4.6 3.9 4.0 2.3 1.6 2.6 2.7 3.1 3.1 5.7 2.0 nan 3.0 1.3 3.2 3.8 2.3 2.8 2.5 1.7
3.3 5.6 8.3 8.9 4.2 2.9 3.0 3.9 4.5 6.4 6.4 5.3 7.2 10.3 11.9 8.0 7.0 4.7 3.9 6.0 3.7 2.2 1.9 1.1 1.7 2.1 3.1 7.5 10.0 8.2 nan 5.5 5.0 5.4 3.7 2.9 2.3 nan
3.2 2.8 6.4 4.2 4.4 3.3 11.1 12.2 15.9 14.3 14.8 18.0 10.2 10.1 21.3 5.9 6.4 4.7 5.5 4.1 3.3 1.7 2.0 1.9 1.9 0.1 1.8 4.0 17.7 8.9 8.6 nan 3.2 3.1 2.5 3.4 2.5 1.7
5.8 3.5 3.7 3.8 6.4 5.9 13.3 20.5 18.8 18.4 13.5 9.9 19.3 26.7 24.6 11.3 9.9 8.4 10.5 9.3 3.4 4.2 2.2 1.7 1.1 0.8 2.8 2.1 2.8 11.7 4.9 5.4 nan nan nan nan 3.4 3.9
11.4 4.4 6.6 8.8 7.3 8.9 4.9 11.0 4.9 23.7 9.8 10.3 9.7 10.4 42.5 14.4 7.6 8.4 8.7 5.4 3.5 4.1 2.7 2.8 1.5 1.2 1.8 1.6 2.5 4.7 4.0 7.2 3.1 3.1 6.7 nan nan nan
Water_Equivalent
0.00 0.00 0.00 0.00 0.00 0.00 0.00 0.00 0.14 0.26 0.04 0.00 0.00 0.00 0.00 0.00 0.00 0.00 0.00 nan nan nan nan nan nan nan nan nan nan nan nan nan nan nan nan nan nan nan
0.00 0.00 0.00 0.00 0.00 0.00 0.00 0.00 0.00 0.05 0.10 0.00 0.00 0.00 0.00 0.00 0.00 0.00 0.00 nan nan nan nan nan nan nan nan nan nan nan nan nan nan nan nan nan nan nan
0.00 0.00 0.00 0.00 0.00 0.00 0.00 0.00 0.00 0.00 0.01 0.00 0.00 0.00 0.00 0.00 0.00 0.00 0.00 0.00 0.00 nan nan nan nan nan nan nan nan nan nan nan nan nan nan nan nan nan
0.00 0.00 0.00 0.00 0.00 0.00 0.00 0.00 0.00 0.00 0.00 0.00 0.00 0.00 0.00 0.00 0.00 0.00 0.00 0.00 0.00 nan nan nan nan nan nan nan nan nan nan nan nan nan nan nan nan nan
0.00 0.00 0.00 0.00 0.00 0.00 0.00 0.00 0.00 0.00 0.00 0.02 0.00 0.00 0.00 0.00 0.00 0.00 0.00 0.00 0.00 nan nan nan nan nan nan nan nan nan nan nan nan nan nan nan nan nan
0.00 0.00 0.00 0.00 0.00 0.00 0.00 0.00 0.00 0.01 0.00 0.01 0.00 0.01 0.01 0.00 0.00 0.00 0.00 0.00 0.00 0.00 nan nan nan nan nan nan nan nan nan nan nan nan nan nan nan nan
0.00 0.00 0.00 nan nan nan 0.00 0.00 0.01 0.03 0.04 0.03 0.01 0.01 0.00 0.00 0.00 0.00 0.04 0.01 0.00 0.00 0.00 0.00 0.00 0.00 0.00 nan nan nan nan nan nan nan nan nan nan nan
0.00 0.00 0.00 0.00 0.00 nan nan nan nan 0.05 0.08 0.08 0.02 0.02 0.00 0.00 0.00 0.00 0.01 0.00 0.02 0.01 0.00 0.05 0.00 0.00 0.00 0.00 nan nan nan nan nan nan nan nan nan nan
0.00 0.00 0.00 0.00 nan 0.00 nan nan nan nan 0.00 0.05 0.05 0.00 0.01 0.00 0.00 0.01 0.03 0.04 0.01 0.00 0.05 0.10 0.09 0.08 0.02 0.00 nan nan nan nan nan nan nan nan nan nan
0.00 0.00 0.00 0.00 0.00 0.00 0.07 0.03 0.00 0.00 0.00 0.00 0.01 0.01 0.00 0.00 0.00 0.00 0.00 0.00 0.04 0.00 0.00 0.32 0.17 0.20 0.11 0.05 nan nan nan nan nan nan nan nan nan nan
0.00 0.00 0.00 0.00 nan nan 0.05 0.07 0.01 0.00 nan nan nan nan nan nan nan 0.17 0.28 0.30 0.65 0.06 0.05 0.13 0.22 0.25 0.19 0.20 0.16 nan nan nan nan nan nan nan nan nan
0.02 0.01 nan 0.00 nan nan 0.17 0.14 0.17 0.02 0.00 0.00 0.00 0.00 nan nan nan 0.00 0.07 0.30 0.33 0.29 0.07 0.16 0.06 0.13 0.35 0.21 0.16 0.19 0.17 nan nan nan nan nan nan 0.05
0.20 0.16 0.12 nan nan nan nan 0.21 0.23 0.03 0.04 0.08 0.02 0.01 0.00 0.00 0.00 0.00 0.00 0.08 0.21 0.13 0.00 0.00 0.11 0.10 0.15 0.21 0.26 0.22 0.18 0.27 0.25 0.18 nan nan nan 0.06
0.22 0.22 0.32 nan nan nan 0.20 nan nan 0.09 0.76 0.63 0.46 0.29 0.24 0.21 0.02 0.05 0.02 0.00 0.00 0.01 0.00 0.00 0.29 0.08 0.12 0.24 0.23 0.21 0.24 0.27 0.25 0.32 0.30 nan nan nan
0.57 0.45 nan nan nan 0.41 nan nan 0.17 0.64 0.81 0.85 0.50 0.29 0.22 0.08 0.04 0.14 0.04 0.03 0.03 0.04 0.02 0.03 0.23 0.04 0.16 0.24 0.23 0.28 0.29 0.29 0.36 0.39 0.39 0.28 0.22 0.19
0.16 0.44 0.21 0.42 0.27 0.31 0.33 0.39 0.50 0.64 0.65 0.62 0.41 0.23 0.22 0.35 0.40 0.31 0.44 0.43 0.48 0.36 0.12 0.09 0.08 0.07 0.42 0.18 0.14 0.29 0.24 0.43 0.31 0.33 0.40 0.47 0.28 0.23
0.68 1.00 0.58 0.43 0.43 0.34 0.41 0.42 0.39 0.39 0.52 0.69 0.63 0.47 0.37 0.32 0.42 0.43 0.43 0.45 0.69 0.42 0.35 0.33 0.13 0.14 0.22 0.09 0.66 0.20 0.23 0.22 0.22 0.35 0.41 0.29 0.26 0.29
0.55 0.75 1.43 1.55 0.89 0.46 0.64 0.58 0.53 0.49 0.41 0.53 0.78 0.53 0.51 0.59 0.52 0.54 0.47 0.49 0.53 0.42 0.37 0.24 0.40 0.48 0.44 0.56 0.39 0.31 0.15 0.21 0.21 0.22 0.33 0.50 0.24 0.22
0.80 0.76 1.50 1.75 1.02 0.38 0.42 0.43 0.62 0.64 0.32 0.54 0.72 0.86 0.87 0.66 0.79 0.68 0.77 0.67 0.67 0.39 0.28 0.46 0.48 0.55 0.47 0.80 0.34 nan 0.51 0.25 0.56 0.65 0.43 0.51 0.46 0.32
0.43 0.69 1.00 1.04 0.51 0.36 0.38 0.45 0.55 0.84 0.84 0.70 1.01 1.39 1.54 1.07 1.04 0.68 0.61 0.86 0.60 0.36 0.32 0.19 0.32 0.39 0.51 1.09 1.65 1.26 nan 0.93 0.82 0.86 0.60 0.54 0.42 nan
0.41 0.36 0.81 0.52 0.53 0.41 1.29 1.43 1.81 1.65 1.70 2.15 1.30 1.29 2.89 0.83 0.94 0.72 0.78 0.75 0.66 0.28 0.31 0.30 0.31 0.04 0.30 0.68 2.90 1.40 1.32 nan 0.57 0.53 0.42 0.58 0.41 0.28
0.74 0.44 0.48 0.51 0.79 0.69 1.58 2.48 2.26 2.25 1.60 1.19 2.21 3.31 3.08 1.39 1.15 0.98 1.24 1.20 0.50 0.62 0.33 0.27 0.18 0.15 0.49 0.35 0.44 1.82 0.77 0.86 nan nan nan nan 0.55 0.61
1.35 0.56 0.86 1.14 0.99 1.19 0.63 1.32 0.59 2.96 1.16 1.18 1.13 1.20 5.38 1.56 0.91 0.99 1.10 0.76 0.52 0.57 0.41 0.41 0.24 0.20 0.28 0.24 0.39 0.71 0.56 1.11 0.49 0.48 1.02 nan nan nan
SL_Ratio
nan nan nan nan nan nan nan nan 4.5 5.8 5.4 nan nan nan nan nan nan nan nan nan nan nan nan nan nan nan nan nan nan nan nan nan nan nan nan nan nan nan
nan nan nan nan nan nan nan nan nan 5.0 6.3 nan nan nan nan nan nan nan nan nan nan nan nan nan nan nan nan nan nan nan nan nan nan nan nan nan nan nan
nan nan nan nan nan nan nan nan nan nan 5.8 nan nan nan nan nan nan nan nan nan nan nan nan nan nan nan nan nan nan nan nan nan nan nan nan nan nan nan
nan nan nan nan nan nan nan nan nan nan nan nan nan nan nan nan nan nan nan nan nan nan nan nan nan nan nan nan nan nan nan nan nan nan nan nan nan nan
nan nan nan nan nan nan nan nan nan nan nan 7.0 nan nan nan nan nan nan nan nan nan nan nan nan nan nan nan nan nan nan nan nan nan nan nan nan nan nan
nan nan nan nan nan nan nan nan 5.0 6.1 nan 6.8 6.4 6.7 6.0 nan nan nan nan nan nan nan nan nan nan nan nan nan nan nan nan nan nan nan nan nan nan nan
nan nan nan nan nan nan nan nan 6.1 7.0 6.8 6.9 7.1 6.7 10.0 nan 6.7 nan 6.5 6.3 nan nan nan nan nan nan nan nan nan nan nan nan nan nan nan nan nan nan
nan nan nan nan nan nan nan nan nan 6.9 7.4 7.3 6.9 7.2 6.7 7.5 nan nan 6.5 nan 4.2 3.0 6.0 3.4 nan nan nan nan nan nan nan nan nan nan nan nan nan nan
nan nan nan nan nan nan nan nan nan nan nan 7.0 7.1 7.1 6.9 nan 6.7 7.2 6.8 6.9 6.4 nan 4.2 3.6 3.5 3.3 3.5 nan nan nan nan nan nan nan nan nan nan nan
nan nan nan nan nan 5.7 6.8 6.8 nan nan nan nan 6.5 6.7 nan nan 7.5 7.5 nan 5.0 4.3 nan nan 4.7 3.6 4.1 3.7 3.6 nan nan nan nan nan nan nan nan nan nan
nan nan nan nan nan nan 6.2 5.9 5.9 nan nan nan nan nan nan nan nan 5.8 5.2 5.4 5.6 3.5 3.3 4.2 4.2 4.2 3.8 3.3 2.7 nan nan nan nan nan nan nan nan nan
5.0 4.4 nan 6.0 nan nan 6.5 6.4 6.9 6.6 5.6 5.0 0.0 nan nan nan nan nan 5.0 5.6 5.6 6.1 4.0 5.0 4.5 4.9 5.1 4.2 3.7 3.2 2.9 nan nan nan nan nan nan 3.0
5.5 5.3 5.1 nan nan nan nan 6.3 7.7 6.8 6.2 5.6 6.3 6.4 6.0 nan nan 6.3 10.0 4.7 5.0 5.1 nan 5.0 5.2 4.9 5.3 5.4 4.3 4.1 3.9 3.5 3.0 2.6 nan nan nan 3.1
6.1 5.6 5.8 nan nan nan 4.4 nan nan 5.4 6.0 6.2 6.0 5.8 5.5 5.2 6.4 6.0 5.9 5.6 nan 4.5 nan 5.0 5.7 5.4 5.6 5.4 5.7 4.7 4.6 4.4 4.1 3.8 3.4 nan nan nan
5.8 6.0 nan nan nan 3.0 nan nan 3.0 6.0 6.3 6.7 6.4 6.2 5.9 6.1 6.1 5.3 5.4 5.1 4.9 4.7 4.8 5.0 5.1 5.2 5.0 5.7 5.6 5.4 5.3 4.8 4.7 4.6 4.5 4.3 4.3 3.7
4.0 5.8 3.0 5.0 3.0 4.2 4.8 5.4 5.6 6.1 6.7 6.8 6.7 6.3 5.6 5.4 5.5 5.4 5.6 5.6 5.6 5.5 4.7 4.9 5.5 5.5 5.3 5.3 5.6 5.9 5.4 5.5 5.0 4.7 4.6 4.6 4.3 4.1
5.5 6.5 6.8 7.1 7.0 6.1 5.8 5.8 5.8 5.8 6.2 6.7 6.5 6.4 6.0 5.8 5.7 5.3 5.7 5.9 6.0 5.9 5.7 5.1 5.1 4.9 4.8 5.3 6.0 5.4 5.5 5.5 5.1 5.1 5.1 5.1 4.7 4.6
6.9 7.5 7.9 7.8 8.0 7.2 7.2 6.7 6.5 5.8 6.5 6.4 6.5 6.4 6.3 6.0 6.1 5.6 5.4 5.8 6.2 6.0 6.0 5.5 5.5 5.5 5.5 5.6 5.3 5.7 5.3 5.3 5.2 5.3 5.1 5.4 5.4 4.8
7.4 7.8 8.7 8.5 8.3 7.6 7.6 7.5 7.6 7.1 7.3 6.7 6.6 6.6 6.8 6.7 6.4 5.9 5.9 5.9 6.0 6.0 5.8 5.6 5.7 5.7 6.5 7.1 5.7 nan 5.8 5.4 5.7 5.8 5.4 5.6 5.5 5.2
7.6 8.0 8.4 8.5 8.2 7.8 7.9 8.6 8.2 7.7 7.7 7.5 7.1 7.4 7.7 7.5 6.7 6.9 6.4 7.0 6.2 6.0 5.8 5.5 5.4 5.5 6.1 6.9 6.1 6.5 nan 5.9 6.1 6.3 6.1 5.5 5.5 nan
7.9 7.8 7.8 8.0 8.3 8.0 8.6 8.6 8.8 8.7 8.7 8.4 7.8 7.8 7.4 7.1 6.8 6.5 7.0 5.5 5.1 6.0 6.3 6.2 6.0 3.0 5.9 6.0 6.1 6.4 6.5 nan 5.6 5.9 5.9 6.0 6.0 5.9
7.9 7.9 7.6 7.5 8.1 8.6 8.4 8.3 8.3 8.2 8.4 8.3 8.7 8.1 8.0 8.2 8.6 8.6 8.5 7.8 6.8 6.7 6.8 6.4 5.9 5.6 5.7 6.2 6.4 6.4 6.5 6.3 nan nan nan nan 6.1 6.4
8.4 7.8 7.7 7.7 7.4 7.5 7.7 8.3 8.3 8.0 8.4 8.7 8.6 8.7 7.9 9.2 8.3 8.5 7.9 7.1 6.8 7.3 6.7 6.9 6.3 6.0 6.2 6.5 6.4 6.7 7.0 6.5 6.3 6.4 6.6 nan nan nan